Regional Weather Roundup
Issued by NWS

Home | Current Version | Previous Version | Graphics & Text | Print | Product List | Glossary Off
Versions: 1 2 3 4 5 6 7 8 9 10 11 12 13 14 15 16 17 18 19 20 21 22 23 24 25 26 27 28 29 30 31 32 33 34 35 36 37 38 39 40 41 42 43 44 45 46 47 48 49 50

000
ASUS43 KTOP 140659
RWRKS

WEATHER ROUNDUP FOR KANSAS
NATIONAL WEATHER SERVICE GOODLAND KS
200 AM CDT MON JUL 14 2014

NOTE:  "FAIR" INDICATES FEW OR NO CLOUDS BELOW 12,000 FEET WITH NO
SIGNIFICANT WEATHER AND/OR OBSTRUCTIONS TO VISIBILITY.

KSZ001>006-013>018-027>032-041>047-140800-
NORTHWEST KANSAS

CITY           SKY/WX    TMP DP  RH WIND       PRES   REMARKS
GOODLAND       PTCLDY    63  61  93 W8        30.18F
HAYS           PTCLDY    72  61  68 W5        30.07F
HILL CITY      CLEAR     70  64  81 W8        30.09S
RUSSELL        PTCLDY    70  65  84 S6        30.04F
$$

KSZ061>065-074>080-084>089-140800-
SOUTHWEST KANSAS

CITY           SKY/WX    TMP DP  RH WIND       PRES   REMARKS
DODGE CITY     MOCLDY    71  61  70 SW5       30.11S
ELKHART          N/A     71  65  81 SW3         N/A
GARDEN CITY    CLOUDY    71  64  78 N3        30.13R
GREAT BEND     MOCLDY    72  66  83 CALM      30.06F
LIBERAL        CLOUDY    72  61  68 SW6       30.14F
$$

KSZ066>073-081>083-090>101-140800-
SOUTHEAST KANSAS

CITY           SKY/WX    TMP DP  RH WIND       PRES   REMARKS
CHANUTE        CLEAR     74  70  87 N3        30.00F
COFFEYVILLE    PTCLDY    76  71  85 NW3       29.98R
HUTCHINSON     PTCLDY    68  64  87 CALM      30.04F
MEDICINE LODGE   N/A     73  69  87 N3        30.03F
NEWTON         PTCLDY    72  63  73 CALM      30.07S
PARSONS        CLEAR     75  71  87 N7        30.00S
WICHITA INTL   MOCLDY    75  69  81 NW5       30.02F
WICHITA JABRA  PTCLDY    71  67  87 NW5       30.02F
WINFIELD       PTCLDY    74  71  91 N3        30.02F
$$

KSZ007>012-019>026-033>040-048>060-102>105-140800-
NORTHEAST KANSAS

CITY           SKY/WX    TMP DP  RH WIND       PRES   REMARKS
CONCORDIA      CLEAR     73  61  65 SW10      30.00F
EMPORIA        PTCLDY    69  65  86 CALM      30.01F
LAWRENCE       CLEAR     68  66  93 CALM      29.99S
MANHATTAN      CLEAR     69  66  90 CALM      30.00F
OLATHE IND     CLEAR     71  68  90 CALM      30.00S
OLATHE EXE     CLEAR     69  67  93 S3        29.99S
SALINA         CLEAR     69  64  84 S8        30.01F
TOPEKA BILLARD CLEAR     72  69  90 CALM      29.99F
TOPEKA FORBES  CLEAR     69  66  90 S3        29.99F
$$


USA.gov is the U.S. government's official web portal to all federal, state and local government web resources and services.